User: anonymous   Login
Location: Newark
(48.3453°N, 0.5589°E)
Time: 00:30:56
(UTC+00:00)
Language:

A-11 Canister half - Orbit

View from above orbital plane
View from above orbital plane
View from above satellite
View from above satellite

Ground track
Ground track

The orbit data is extracted from the following two-line orbital elements,

1    51U 60009C   19346.87566975 -.00000123  00000-0 -37482-3 0  9992
2    51  47.2100 207.7356 0106154 327.0019  32.4177 12.18273813641215
Epoch (UTC): 12 December 2019 21:00:57
Eccentricity: 0.0106154
inclination: 47.2100°
perigee height: 1515 km
apogee height: 1685 km
right ascension of ascending node: 207.7356°
argument of perigee: 327.0019°
revolutions per day: 12.18273813
mean anomaly at epoch: 32.4177°
orbit number at epoch: 64121

The dashed part of the orbit path shows where the satellite is in the earth's shadow,  

DLR